Hourly Data Report for July 14, 2021

RANKIN INLET A
NUNAVUT
Current Station Operator: NAVCAN

62°48'38.000" N
92°06'53.000" W
32.30 m
2303405
71083
YRT

Download Data

Hourly Data (July 2021)
Hourly Data Report for July 14, 2021
TIME
LST
Temp Definition
°C
Dew Point Definition
°C
Rel Hum Definition
%
Precip. Amount Definition
mm

Wind Dir Definition
10's deg

Wind Spd Definition
km/h
Visibility Definition
km
Stn Press Definition
kPa
Hmdx Definition


Wind Chill Definition


Weather Definition


00:00 11.1 6.3 72   23 13 24.1 100.65     Mostly Cloudy
01:00 10.6 7.3 80   24 14 24.1 100.60     LegendNANA
02:00 10.8 7.5 80   23 14 24.1 100.59     LegendNANA
03:00 10.6 7.6 82   21 10 24.1 100.56     Mostly Cloudy
04:00 10.5 7.9 84   22 14 24.1 100.54     LegendNANA
05:00 10.9 7.8 81   22 16 24.1 100.52     LegendNANA
06:00 11.8 7.8 76   20 12 24.1 100.52     Mostly Cloudy
07:00 12.8 8.2 73   21 14 24.1 100.48     LegendNANA
08:00 13.6 8.8 73   22 12 24.1 100.45     LegendNANA
09:00 15.7 9.8 68   24 12 24.1 100.40     Cloudy
10:00 18.8 10.1 57   24 12 24.1 100.38     LegendNANA
11:00 19.4 10.4 55   20 10 24.1 100.35     LegendNANA
12:00 22.0 11.1 49   19 10 24.1 100.31     Mainly Clear
13:00 25.6 9.3 35   27 22 24.1 100.29 27   LegendNANA
14:00 26.2 8.9 33   27 23 24.1 100.27 27   LegendNANA
15:00 25.2 9.1 36   24 17 24.1 100.26 26   Mainly Clear
16:00 25.1 9.1 36   24 23 24.1 100.23 26   LegendNANA
17:00 25.0 8.2 34   24 17 24.1 100.20 25   LegendNANA
18:00 20.7 9.8 49   20 26 24.1 100.18     Mainly Clear
19:00 18.8 9.4 54   21 29 24.1 100.16     LegendNANA
20:00 17.1 9.0 59   21 33 24.1 100.13     LegendNANA
21:00 15.4 8.6 64   21 31 24.1 100.11     Mainly Clear
22:00 14.2 8.0 66   20 27 24.1 100.08     LegendNANA
23:00 13.0 7.5 69   20 21 24.1 100.05     LegendNANA

Notes on Data Quality.

Legend

  • E = Estimated
  • M = Missing
  • NA = Not Available*
  • [empty] = Indicates an unobserved value
Date modified: